Content
SEND FEEDBACK

Daily
Averages
Monthly
Summary
United States of America

ST. LOUIS, MISSOURI


Home > North America > United States > Missouri
Elevation: 163 meters     Latitude: 38 45N     Longitude: 090 22W

WEATHER
 
SELECT A DAY
Number of Records: 201,261;   Date Range: 1/1/95 - 12/19/14
 
SHARE

PRINT THIS DATA

[ ← Previous Day ]
WEATHER ALMANAC - 7 APRIL, 2013
[ Next Day → ]
[ °F ]   °C
Weather ElementAverageHighLow
Temperature19.2 °C25.6 °C (1:54 pm)11.1 °C (6:54 am)
Dewpoint9.2 °C13.9 °C (9:54 pm)6.1 °C (1:54 am)
Humidity54.9 %78 % (9:54 pm)32 % (1:54 pm)
Barometer1010.5 hPa1012.9 hPa (8:54 am)1006.4 hPa (11:54 pm)
Wind Speed9.7 km/h27.8 km/h (6:54 pm)
Wind Gust40.7 km/h (6:54 pm)
Weather ElementAverage
Visibility15.8 km
Wind DirectionESE (113.2 °)

Weather ElementTotal
Precipitation1.02 mm
Growing Degree Days8.4 (Base 10)
Averaged from 25 records on 7 April, 2013
WEATHER CONDITIONS BREAKOUT
WIND DIRECTION BREAKOUT
WEATHER BY HOUR - 7 APRIL, 2013
[ °F ]   °C
Local TimeTemperatureDewpointHumidityBarometerVisibilityWind DirectionWind SpeedGust SpeedPrecipitationEventsConditions
1:54 AM18.3 °C6.1 °C45 %1009.5 hPa16.1 kmSW (230°)11.1 km/hOvercast
2:54 AM16.7 °C6.7 °C52 %1009.5 hPa16.1 kmSW (230°)7.4 km/hOvercast
3:54 AM16.1 °C7.2 °C56 %1009.8 hPa16.1 kmWSW (240°)9.3 km/hMostly Cloudy
4:54 AM13.3 °C6.7 °C64 %1010.5 hPa16.1 kmWest (260°)11.1 km/hMostly Cloudy
5:54 AM12.8 °C6.7 °C67 %1011.2 hPa16.1 kmWSW (240°)7.4 km/hPartly Cloudy
6:54 AM11.1 °C6.1 °C71 %1011.9 hPa16.1 kmCalmScattered Clouds
7:54 AM11.7 °C7.8 °C77 %1012.2 hPa16.1 kmCalmScattered Clouds
8:54 AM16.1 °C8.9 °C62 %1012.9 hPa16.1 kmCalmClear
9:54 AM19.4 °C8.3 °C49 %1012.5 hPa16.1 kmCalmClear
10:54 AM21.7 °C8.9 °C44 %1012.9 hPa16.1 kmVariable5.6 km/hClear
11:54 AM23.3 °C7.8 °C37 %1012.2 hPa16.1 kmSSE (160°)9.3 km/hClear
12:54 PM25 °C7.8 °C33 %1011.9 hPa16.1 kmVariable5.6 km/hScattered Clouds
1:54 PM25.6 °C7.8 °C32 %1011.2 hPa16.1 kmVariable11.1 km/hMostly Cloudy
2:54 PM25 °C7.8 °C33 %1010.5 hPa16.1 kmESE (120°)7.4 km/hMostly Cloudy
3:54 PM24.4 °C6.7 °C32 %1009.8 hPa16.1 kmCalmOvercast
4:54 PM24.4 °C8.3 °C36 %1009.8 hPa16.1 kmSE (140°)14.8 km/hScattered Clouds
5:54 PM23.9 °C9.4 °C40 %1009.1 hPa16.1 kmESE (110°)14.8 km/hScattered Clouds
6:34 PM23 °C11 °C47 %1009.8 hPa16.1 kmSE (130°)13 km/hThunderstormOvercast
6:54 PM21.1 °C11.7 °C55 %1009.8 hPa11.3 kmSouth (170°)27.8 km/h40.7 km/h0 mmRain-ThunderstormLight Thunderstorms and Rain
7:04 PM19 °C12 °C64 %1009.8 hPa11.3 kmSE (140°)16.7 km/h0.25 mmRainLight Rain
7:54 PM17.8 °C13.3 °C75 %1009.5 hPa16.1 kmESE (110°)13 km/h0.25 mmOvercast
8:54 PM17.2 °C12.8 °C75 %1009.5 hPa16.1 kmEast (100°)11.1 km/hOvercast
9:54 PM17.8 °C13.9 °C78 %1009.8 hPa16.1 kmESE (110°)7.4 km/hOvercast
10:54 PM18.3 °C13.3 °C73 %1009.5 hPa16.1 kmSouth (170°)13 km/hPartly Cloudy
11:54 PM18.3 °C13.9 °C75 %1006.4 hPa16.1 kmSouth (170°)22.2 km/h37 km/h0.51 mmRainLight Rain
Hourly data recorded from KSUS, located 0 kilometers away from St. Louis, Missouri







STORIES FROM OUR PARTNERS